FENGYUN 1C DEB

Satellite information

Favourite Embed

Satellite Type and Status

DEBRISIN ORBIT

Key statistics

Satellite FENGYUN 1C DEB at a glance.

Uptime

9715

Days in orbit

Revolutions

≈ 14.1

Per day

Orbit

SSO

Sun Synchronous Orbit

Inclination

98.9

Latest

Satellite identification and parameters

Extended collection of information and parameters for FENGYUN 1C DEB.

Object identification

Identified? True

Debris? True

Object name: FENGYUN 1C DEB

International designator: 1999-025YH

Object number (NORAD): 30272

Object ID (CCSDS): 30272

Country: PEOPLES REPUBLIC OF CHINA (PRC)

Current information (Y/N): Y

RCS size: SMALL

Orbital parameters

Period: 101.787 minutes

Inclination: 98.9009 deg

SMA: 7221.41 km

Apoapsis: 880.031 km

Periapsis: 806.518 km

RAAN: 55.3448 deg

Eccentricy: 0.00508996

Argument of periapsis: 101.2885 deg

Mean anomaly: 259.4014 deg

Mean motion: 14.14717673 rev/day

Mean motion (dot): 0.0000275 rev/day2

B* drag term: 0.0014327188 1/REarth

Two-line elements (TLE)

Creation date: Dec. 14, 2025, 3:07 a.m.

Reference frame: TEME

Reference center: EARTH

Epoch: Dec. 13, 2025, 3:40 p.m. UTC

TLE line 0: 0 FENGYUN 1C DEB

TLE line 1: 1 30272U 99025YH 25347.65327764 .00002750 00000-0 14327-2 0 9993

TLE line 2: 2 30272 98.9009 55.3448 0050900 101.2885 259.4014 14.14717673968693

Live tracking on map

Real-time ground track for satellite FENGYUN 1C DEB.

In-orbit conjunctions

A list of the most updated potential collisions computed for object FENGYUN 1C DEB.

Target Orbit TCA Probability of collision Miss distance Type
CZ-6A DEB SSO 2025-10-11 13:48:50 0.0001446097 95.0 (m) DEBRIS
CZ-6A DEB LEO 2025-04-07 23:34:11 0.0001331241 14.0 (m) DEBRIS
FENGYUN 1C DEB SSO 2025-01-07 04:27:57 0.0001016182 89.0 (m) DEBRIS

Associated space launch

Chinese polar orbiting meteorological satellite

FENGYUN 1C DEB was lifted into orbit during the mission ‘Long March 4B | Feng Yun 1C’, on board a Long March 4B space rocket.

The launch took place on May 10, 1999, 1:33 a.m. from Launch Complex 7.

For more information about the launch, click the button.

Launch to space Long March 4B | Feng Yun 1C
Long March 4B | Feng Yun 1C

Agency: N/A

Status: Launch Successful

Launch date: May 10, 1999, 1:33 a.m. UTC

Rocket: Long March 4B

Launch pad: Launch Complex 7

Location: Taiyuan Satellite Launch Center, People's Republic of China

...

Latest news about this satellite

There are no fresh news available about this satellite. Check back as we update our databases every day.


Newsletter sign-up

Weekly statistics, charts and insights to help you stay on top of the space industry.